TimeEST,TemperatureF,Dew PointF,Humidity,Sea Level PressureIn,VisibilityMPH,Wind Direction,Wind SpeedMPH,Gust SpeedMPH,PrecipitationIn,Events,Conditions,WindDirDegrees,DateUTC
1:53 AM,36.0,21.9,57,29.85,10.0,SW,3.5,-,N/A,,Overcast,220,2013-01-01 06:53:00
2:53 AM,36.0,21.9,57,29.82,10.0,SSW,4.6,-,N/A,,Overcast,210,2013-01-01 07:53:00
3:53 AM,36.0,23.0,59,29.83,10.0,SSW,3.5,-,N/A,,Overcast,210,2013-01-01 08:53:00
4:53 AM,36.0,25.0,64,29.83,10.0,WSW,8.1,-,N/A,,Overcast,240,2013-01-01 09:53:00
6:53 AM,37.0,25.0,62,29.83,10.0,WSW,6.9,-,N/A,,Overcast,250,2013-01-01 11:53:00
7:53 AM,37.0,23.0,57,29.84,10.0,West,9.2,-,N/A,,Overcast,260,2013-01-01 12:53:00
9:53 AM,37.0,19.9,50,29.87,10.0,WNW,10.4,19.6,N/A,,Overcast,290,2013-01-01 14:53:00
10:53 AM,37.0,19.0,48,29.87,10.0,West,11.5,-,N/A,,Overcast,280,2013-01-01 15:53:00
11:53 AM,37.0,16.0,42,29.85,10.0,WNW,13.8,20.7,N/A,,Overcast,300,2013-01-01 16:53:00
12:53 PM,37.0,16.0,42,29.84,10.0,NW,10.4,16.1,N/A,,Overcast,320,2013-01-01 17:53:00
2:53 PM,35.1,14.0,42,29.84,10.0,WNW,9.2,-,N/A,,Scattered Clouds,290,2013-01-01 19:53:00
3:53 PM,33.1,19.0,56,29.85,10.0,NNE,6.9,-,N/A,,Overcast,20,2013-01-01 20:53:00
4:53 PM,32.0,18.0,56,29.89,10.0,NNW,10.4,-,N/A,,Overcast,330,2013-01-01 21:53:00
5:53 PM,30.9,12.9,47,29.91,10.0,WNW,12.7,24.2,N/A,,Clear,300,2013-01-01 22:53:00
6:53 PM,30.0,12.0,47,29.94,10.0,WNW,6.9,-,N/A,,Clear,300,2013-01-01 23:53:00
7:53 PM,28.0,10.0,47,29.95,10.0,WNW,6.9,-,N/A,,Clear,290,2013-01-02 00:53:00
8:53 PM,26.1,8.1,47,29.96,10.0,WNW,12.7,-,N/A,,Clear,290,2013-01-02 01:53:00
9:53 PM,23.0,7.0,50,29.98,10.0,WNW,4.6,-,N/A,,Clear,290,2013-01-02 02:53:00
10:53 PM,21.9,6.1,51,29.99,10.0,Calm,Calm,-,N/A,,Clear,0,2013-01-02 03:53:00
11:53 PM,15.1,7.0,70,30.00,10.0,Calm,Calm,-,N/A,,Clear,0,2013-01-02 04:53:00